Zurück zum Katalog

DELTA 4 R/B

AktivHEO
NORAD 36412·ROCKET BODY·🇺🇸 United States

Gestartet Mar 4, 2010 von Cape Canaveral Space Force Station

Loading…

Nächste Überflüge (nächste 24 Stunden)

TLE

AktuellSource: Space-Track

Epoche: Sep 14, 2026, 03:28 UTC

1 36412U 10008B   26257.14450419 -.00000044  00000-0  00000-0 0  9994
2 36412  13.4286 355.2618 5256995 118.2260 193.1942  1.92895536116424

Verfolge DELTA 4 R/B in Echtzeit mit AllMySat

Download on the App Store